User: anonymous   Login
Location: Unspecified
(0.0000°N, 0.0000°E)
Time: 09:08:28
(UTC+00:00)
Language:

UME 1 - Orbit

View from above orbital plane
View from above orbital plane
View from above satellite
View from above satellite

Ground track
Ground track

The orbit data is extracted from the following two-line orbital elements,

1 08709U 76019A   18109.78620348 -.00000008  00000-0  49322-4 0  9997
2 08709  69.6744 225.6611 0013571 251.1066 220.2860 13.71397167108692
Epoch (UTC): 19 April 2018 18:52:07
Eccentricity: 0.0013571
inclination: 69.6744°
perigee height: 984 km
apogee height: 1004 km
right ascension of ascending node: 225.6611°
argument of perigee: 251.1066°
revolutions per day: 13.71397167
mean anomaly at epoch: 220.2860°
orbit number at epoch: 10869

The dashed part of the orbit path shows where the satellite is in the earth's shadow,  

DLR